1322956832922,180.735
1322956892922,180.765
1322956952922,181.022
1322957012922,180.765
1322957072922,180.895
1322957132922,181.033
1322957192922,180.634
1322957252922,180.792
1322957312922,180.798
1322957372922,180.708
1322957432922,180.872
1322957492922,181.080
1322957552922,180.725
1322957612922,180.895
1322957672922,181.217
1322957732922,180.705
1322957792922,180.947
1322957852922,181.045
1322957912922,180.751
1322957972922,180.671
1322958032922,180.994
1322958092922,180.905
1322958152922,180.997
1322958212922,180.951
1322958272922,180.921
1322958332922,180.622
1322958392922,181.054
1322958452922,180.863
1322958512922,180.912
1322958572922,181.072
1322958632922,180.910
1322958692922,181.121
1322958752922,181.168
1322958812922,181.102
1322958872922,180.947
1322958932922,181.277
1322958992922,180.885
1322959052922,181.171
1322959112922,181.619
1322959172922,181.093
1322959232922,181.277
1322959292922,182.895
1322959352922,180.868
1322959412922,181.051
1322959472922,181.332
1322959532922,181.304
1322959592922,181.471
1322959652922,181.117
1322959712922,181.406
1322959772922,181.258
1322959832922,181.585
1322959892922,181.540
1322959952922,181.153
1322960012922,181.673
1322960072922,181.391
1322960132922,181.356
1322960192922,181.646
1322960252922,181.553
1322960312922,181.439
1322960372922,181.550
1322960432933,181.611
1322960492933,181.432
1322960552933,181.654
1322960612933,181.771
1322960672933,181.664
1322960732933,181.793
1322960792933,181.895
1322960852933,181.952
1322960912933,181.745
1322960972933,181.741
1322961032933,181.465
1322961092933,181.945
1322961152933,181.666
1322961212933,181.647
1322961272933,181.616
1322961332933,181.231
1322961392933,181.728
1322961452933,181.747
1322961512933,181.335
1322961572933,181.842
1322961632933,182.048
1322961692933,182.072
1322961752933,182.063
1322961812933,181.597
1322961872933,182.073
1322961932933,182.061
1322961992933,181.979
1322962052933,182.318
1322962112933,181.796
1322962172933,182.244
1322962232933,181.949
1322962292933,181.811
1322962352933,182.665
1322962412933,182.079
1322962472933,181.945
1322962532933,182.004
1322962592933,182.284
1322962652933,182.150
1322962712933,182.030
1322962772933,182.177
1322962832933,182.356
1322962892933,182.028
1322962952933,182.342
1322963012933,182.273
1322963072933,182.186
1322963132933,181.928
1322963192933,182.322
1322963252933,182.423
1322963312933,182.305
1322963372933,182.175
1322963432933,182.743
1322963492933,182.289
1322963552933,182.348
1322963612933,182.366
1322963672933,182.204
1322963732933,182.738
1322963792933,182.535
1322963852933,182.550
1322963912933,182.739
1322963972933,182.583
1322964032943,182.716
1322964092943,182.297
1322964152943,181.848
1322964212943,182.412
1322964272943,182.502
1322964332943,181.969
1322964392943,182.282
1322964452943,182.150
1322964512943,182.412
1322964572943,182.364
1322964632943,182.127
1322964692943,182.405
1322964752943,182.305
1322964812943,182.220
1322964872943,182.375
1322964932943,182.370
1322964992943,182.555
1322965052943,182.251
1322965112943,182.363
1322965172943,182.416
1322965232943,182.771
1322965292943,182.244
1322965352943,182.270
1322965412943,182.478
1322965472943,182.351
1322965532943,182.463
1322965592943,182.593
1322965652943,182.683
1322965712943,182.114
1322965772943,182.426
1322965832943,182.288
1322965892943,182.357
1322965952943,182.018
1322966012943,182.310
1322966072943,182.072
1322966132943,182.399
1322966192943,182.174
1322966252943,182.049
1322966312943,182.389
1322966372943,182.279
1322966432943,182.312
1322966492943,182.217
1322966552943,182.181
1322966612943,182.547
1322966672943,182.030
1322966732943,181.799
1322966792943,181.949
1322966852943,182.204
1322966912943,181.658
1322966972943,182.150
1322967032943,181.938
1322967092943,182.014
1322967152943,182.349
1322967212943,182.130
1322967272943,182.129
1322967332943,181.994
1322967392943,182.187
1322967452943,182.053
1322967512943,181.664
1322967572943,181.786
1322967632954,182.246
1322967692954,181.555
1322967752954,181.749
1322967812954,182.001
1322967872954,182.048
1322967932954,181.980
1322967992954,181.858
1322968052954,181.809
1322968112954,181.420
1322968172954,182.023
1322968232954,181.964
1322968292954,182.111
1322968352954,181.943
1322968412954,181.673
1322968472954,181.987
1322968532954,181.853
1322968592954,181.545
1322968652954,181.503
1322968712954,181.537
1322968772954,181.623
1322968832954,181.596
1322968892954,181.604
1322968952954,181.440
1322969012954,181.843
1322969072954,181.443
1322969132954,181.537
1322969192954,181.468
1322969252954,181.877
1322969312954,181.941
1322969372954,181.527
1322969432954,181.868
1322969492954,181.810
1322969552954,181.900
1322969612954,181.799
1322969672954,181.589
1322969732954,181.446
1322969792954,181.819
1322969852954,181.825
1322969912954,181.487
1322969972954,181.551
1322970032954,181.555
1322970092954,181.740
1322970152954,181.627
1322970212954,181.722
1322970272954,181.465
1322970332954,181.936
1322970392954,181.760
1322970452954,181.564
1322970512954,181.553
1322970572954,182.050
1322970632954,181.919
1322970692954,181.788
1322970752954,182.043
1322970812954,182.226
1322970872954,182.045
1322970932954,181.634
1322970992954,181.986
1322971052954,182.154
1322971112954,182.243
1322971172954,182.320
1322971232964,182.396
1322971292964,182.018
1322971352964,181.884
1322971412964,182.342
1322971472964,182.520
1322971532964,182.594
1322971592964,182.400
1322971652964,182.508
1322971712964,182.208
1322971772964,182.659
1322971832964,182.659
1322971892964,182.635
1322971952964,182.551
1322972012964,182.416
1322972072964,182.482
1322972132964,182.838
1322972192964,182.547
1322972252964,182.405
1322972312964,182.633
1322972372964,182.641
1322972432964,183.003
1322972492964,182.765
1322972552964,183.035
1322972612964,182.509
1322972672964,183.168
1322972732964,182.952
1322972792964,182.945
1322972852964,182.875
1322972912964,182.898
1322972972964,183.106
1322973032964,182.599
1322973092964,183.181
1322973152964,183.372
1322973212964,182.976
1322973272964,183.243
1322973332964,183.177
1322973392964,183.242
1322973452964,183.371
1322973512964,183.073
1322973572964,183.150
1322973632964,183.066
1322973692964,183.183
1322973752964,183.214
1322973812964,183.318
1322973872964,183.245
1322973932964,183.026
1322973992964,183.006
1322974052964,183.361
1322974112964,183.339
1322974172964,183.297
1322974232964,183.255
1322974292964,183.456
1322974352964,183.099
1322974412964,183.234
1322974472964,183.547
1322974532964,183.523
1322974592964,183.472
1322974652964,183.499
1322974712964,183.604
1322974772964,183.577
1322974832975,183.795
1322974892975,183.602
1322974952975,183.854
1322975012975,183.347
1322975072975,183.723
1322975132975,183.655
1322975192975,183.462
1322975252975,183.534
1322975312975,183.706
1322975372975,183.842
1322975432975,183.631
1322975492975,183.741
1322975552975,183.632
1322975612975,183.667
1322975672975,183.885
1322975732975,183.957
1322975792975,183.727
1322975852975,183.829
1322975912975,183.802
1322975972975,183.686
1322976032975,183.866
1322976092975,183.808
1322976152975,183.891
1322976212975,184.051
1322976272975,183.784
1322976332975,183.665
1322976392975,183.842
1322976452975,183.818
1322976512975,183.757
1322976572975,183.734
1322976632975,183.823
1322976692975,183.732
1322976752975,183.528
1322976812975,183.748
1322976872975,183.683
1322976932975,183.712
1322976992975,183.891
1322977052975,183.749
1322977112975,183.694
1322977172975,184.408
1322977232975,183.826
1322977292975,183.971
1322977352975,184.210
1322977412975,183.816
1322977472975,183.938
1322977532975,184.134
1322977592975,184.364
1322977652975,183.856
1322977712975,183.492
1322977772975,183.896
1322977832975,184.186
1322977892975,183.980
1322977952975,184.128
1322978012975,184.002
1322978072975,184.118
1322978132975,184.187
1322978192975,183.888
1322978252975,184.077
1322978312975,183.885
1322978372975,184.382
1322978432985,184.078
1322978492985,183.970
1322978552985,183.983
1322978612985,184.649
1322978672985,184.271
1322978732985,184.062
1322978792985,184.090
1322978852985,184.007
1322978912985,183.879
1322978972985,184.349
1322979032985,184.037
1322979092985,184.070
1322979152985,183.739
1322979212985,184.234
1322979272985,183.803
1322979332985,183.728
1322979392985,184.258
1322979452985,183.706
1322979512985,184.114
1322979572985,184.103
1322979632985,184.366
1322979692985,183.933
1322979752985,183.874
1322979812985,184.126
1322979872985,184.099
1322979932985,184.322
1322979992985,184.291
1322980052985,184.550
1322980112985,184.317
1322980172985,184.462
1322980232985,184.729
1322980292985,184.341
1322980352985,184.263
1322980412985,184.173
1322980472985,184.320
1322980532985,184.298
1322980592985,184.497
1322980652985,184.532
1322980712985,184.701
1322980772985,184.833
1322980832985,185.126
1322980892985,184.941
1322980952985,184.708
1322981012985,185.021
1322981072985,184.694
1322981132985,184.811
1322981192985,185.277
1322981252985,184.753
1322981312985,184.894
1322981372985,185.215
1322981432985,185.023
1322981492985,185.078
1322981552985,185.016
1322981612985,184.878
1322981672985,185.336
1322981732985,185.084
1322981792985,185.058
1322981852985,185.125
1322981912985,185.548
1322981972985,184.934
1322982032996,184.932
1322982092996,185.221
1322982152996,184.824
1322982212996,185.190
1322982272996,185.210
1322982332996,185.084
1322982392996,185.011
1322982452996,184.903
1322982512996,184.835
1322982572996,185.302
1322982632996,185.174
1322982692996,185.164
1322982752996,185.024
1322982812996,185.023
1322982872996,185.323
1322982932996,185.128
1322982992996,185.551
1322983052996,185.416
1322983112996,184.937
1322983172996,185.324
1322983232996,185.145
1322983292996,185.500
1322983352996,185.603
1322983412996,185.315
1322983472996,185.434
1322983532996,185.507
1322983592996,185.451
1322983652996,185.230
1322983712996,185.172
1322983772996,185.238
1322983832996,185.576
1322983892996,185.262
1322983952996,185.452
1322984012996,185.458
1322984072996,185.111
1322984132996,185.409
1322984192996,185.217
1322984252996,185.211
1322984312996,185.298
1322984372996,185.634
1322984432996,185.677
1322984492996,185.523
1322984552996,185.697
1322984612996,185.395
1322984672996,185.296
1322984732996,185.097
1322984792996,185.430
1322984852996,185.171
1322984912996,185.293
1322984972996,184.883
1322985032996,185.270
1322985092996,185.292
1322985152996,185.698
1322985212996,185.366
1322985272996,185.133
1322985332996,185.135
1322985392996,185.284
1322985452996,185.412
1322985512996,185.304
1322985572996,185.315
1322985633007,185.511
1322985693007,185.204
1322985753007,185.336
1322985813007,185.684
1322985873007,185.254
1322985933007,185.321
1322985993007,185.518
1322986053007,185.362
1322986113007,185.287
1322986173007,185.468
1322986233007,185.958
1322986293007,185.164
1322986353007,185.616
1322986413007,185.457
1322986473007,185.331
1322986533007,185.456
1322986593007,185.628
1322986653007,185.897
1322986713007,185.850
1322986773007,185.917
1322986833007,185.767
1322986893007,185.498
1322986953007,185.902
1322987013007,185.728
1322987073007,185.815
1322987133007,185.780
1322987193007,185.665
1322987253007,186.025
1322987313007,185.924
1322987373007,185.880
1322987433007,186.281
1322987493007,186.218
1322987553007,186.337
1322987613007,186.086
1322987673007,186.026
1322987733007,186.015
1322987793007,186.289
1322987853007,186.155
1322987913007,186.004
1322987973007,186.062
1322988033007,186.378
1322988093007,186.113
1322988153007,186.622
1322988213007,186.139
1322988273007,186.282
1322988333007,186.110
1322988393007,186.386
1322988453007,186.427
1322988513007,186.294
1322988573007,186.398
1322988633007,186.654
1322988693007,186.418
1322988753007,186.232
1322988813007,186.961
1322988873007,186.633
1322988933007,186.501
1322988993007,186.430
1322989053007,186.882
1322989113007,186.632
1322989173007,186.467
1322989233019,186.308
1322989293019,186.223
1322989353019,186.571
1322989413019,186.434
1322989473019,186.143
1322989533019,186.617
1322989593019,186.214
1322989653019,186.728
1322989713019,186.070
1322989773019,186.893
1322989833019,186.648
1322989893019,186.752
1322989953019,186.393
1322990013019,186.611
1322990073019,186.659
1322990133019,186.456
1322990193019,186.580
1322990253019,186.869
1322990313019,186.410
1322990373019,186.415
1322990433019,186.762
1322990493019,186.668
1322990553019,186.806
1322990613019,186.584
1322990673019,186.300
1322990733019,186.485
1322990793019,186.573
1322990853019,186.834
1322990913019,186.858
1322990973019,186.729
1322991033019,186.603
1322991093019,186.610
1322991153019,186.507
1322991213019,187.008
1322991273019,186.928
1322991333019,186.357
1322991393019,186.903
1322991453019,186.505
1322991513019,187.222
1322991573019,186.821
1322991633019,186.789
1322991693019,186.776
1322991753019,186.861
1322991813019,186.865
1322991873019,186.793
1322991933019,186.995
1322991993019,186.828
1322992053019,186.655
1322992113019,187.113
1322992173019,186.944
1322992233019,186.872
1322992293019,186.769
1322992353019,187.175
1322992413019,187.286
1322992473019,186.635
1322992533019,186.880
1322992593019,186.592
1322992653019,187.074
1322992713019,186.745
1322992773019,186.935
1322992833031,186.930
1322992893031,186.793
1322992953031,186.980
1322993013031,187.040
1322993073031,187.148
1322993133031,186.998
1322993193031,186.929
1322993253031,186.971
1322993313031,186.818
1322993373031,187.395
1322993433031,187.143
1322993493031,186.871
1322993553031,187.094
1322993613031,187.298
1322993673031,187.006
1322993733031,186.924
1322993793031,186.964
1322993853031,186.864
1322993913031,187.136
1322993973031,186.776
1322994033031,186.867
1322994093031,186.883
1322994153031,186.788
1322994213031,187.037
1322994273031,186.802
1322994333031,186.733
1322994393031,187.173
1322994453031,186.946
1322994513031,186.799
1322994573031,187.189
1322994633031,186.807
1322994693031,186.996
1322994753031,186.659
1322994813031,186.776
1322994873031,186.734
1322994933031,186.680
1322994993031,186.350
1322995053031,186.809
1322995113031,186.725
1322995173031,186.630
1322995233031,186.619
1322995293031,186.474
1322995353031,186.810
1322995413031,186.747
1322995473031,187.071
1322995533031,186.961
1322995593031,186.905
1322995653031,186.885
1322995713031,186.749
1322995773031,186.966
1322995833031,186.400
1322995893031,186.884
1322995953031,187.008
1322996013031,186.595
1322996073031,186.920
1322996133031,186.852
1322996193031,186.893
1322996253031,187.355
1322996313031,186.819
1322996373031,187.106
1322996433043,187.102
1322996493043,186.718
1322996553043,186.702
1322996613043,187.205
1322996673043,187.415
1322996733043,187.105
1322996793043,186.943
1322996853043,187.042
1322996913043,187.051
1322996973043,186.935
1322997033043,187.100
1322997093043,186.626
1322997153043,186.783
1322997213043,186.988
1322997273043,186.883
1322997333043,186.825
1322997393043,186.745
1322997453043,187.061
1322997513043,186.926
1322997573043,187.001
1322997633043,186.942
1322997693043,186.105
1322997753043,186.544
1322997813043,186.759
1322997873043,186.519
1322997933043,187.073
1322997993043,186.857
1322998053043,186.233
1322998113043,186.465
1322998173043,186.359
1322998233043,186.422
1322998293043,186.628
1322998353043,186.680
1322998413043,186.441
1322998473043,186.224
1322998533043,186.358
1322998593043,186.524
1322998653043,186.277
1322998713043,186.320
1322998773043,186.152
1322998833043,186.264
1322998893043,186.414
1322998953043,186.234
1322999013043,186.190
1322999073043,186.168
1322999133043,185.764
1322999193043,186.169
1322999253043,186.245
1322999313043,186.080
1322999373043,186.435
1322999433043,185.819
1322999493043,186.087
1322999553043,186.299
1322999613043,185.999
1322999673043,186.118
1322999733043,185.785
1322999793043,185.655
1322999853043,185.897
1322999913043,186.333
1322999973043,186.334
1323000033055,186.146
1323000093055,186.417
1323000153055,186.092
1323000213055,185.947
1323000273055,186.278
1323000333055,185.989
1323000393055,186.042
1323000453055,186.294
1323000513055,186.211
1323000573055,186.130
1323000633055,186.124
1323000693055,186.308
1323000753055,186.320
1323000813055,186.477
1323000873055,186.310
1323000933055,185.603
1323000993055,186.242
1323001053055,186.338
1323001113055,186.287
1323001173055,186.153
1323001233055,186.126
1323001293055,186.051
1323001353055,186.468
1323001413055,186.562
1323001473055,186.277
1323001533055,186.348
1323001593055,186.580
1323001653055,185.994
1323001713055,186.483
1323001773055,186.519
1323001833055,186.313
1323001893055,186.342
1323001953055,186.360
1323002013055,186.320
1323002073055,186.337
1323002133055,186.202
1323002193055,186.134
1323002253055,186.216
1323002313055,186.323
1323002373055,186.032
1323002433055,186.336
1323002493055,185.916
1323002553055,185.966
1323002613055,185.898
1323002673055,185.982
1323002733055,186.173
1323002793055,186.425
1323002853055,185.840
1323002913055,186.088
1323002973055,186.213
1323003033055,186.306
1323003093055,186.403
1323003153055,186.282
1323003213055,186.286
1323003273055,186.035
1323003333055,186.032
1323003393055,186.024
1323003453055,186.219
1323003513055,186.195
1323003573055,186.216
1323003633067,186.173
1323003693067,186.026
1323003753067,186.170
1323003813067,186.098
1323003873067,186.151
1323003933067,186.345
1323003993067,186.341
1323004053067,186.410
1323004113067,186.146
1323004173067,186.600
1323004233067,186.409
1323004293067,186.136
1323004353067,186.562
1323004413067,186.297
1323004473067,186.737
1323004533067,186.454
1323004593067,186.717
1323004653067,186.411
1323004713067,186.712
1323004773067,186.490
1323004833067,186.237
1323004893067,186.689
1323004953067,181.540
1323005013067,186.584
1323006153067,186.855
1323006213067,182.177
1323006273067,186.889
1323006333067,186.728
1323006393067,186.553
1323006453067,186.866
1323006513067,186.736
1323006573067,186.599
1323006633067,186.701
1323006693067,186.653
1323006753067,186.642
1323006813067,186.731
1323006873067,186.639
1323006933067,186.651
1323006993067,186.484
1323007053067,187.014
1323007113067,186.866
1323007173067,186.846
1323007233079,186.997
1323007293079,187.078
1323007353079,186.987
1323007413079,187.041
1323007473079,187.057
1323007533079,186.973
1323007593079,187.236
1323007653079,187.122
1323007713079,187.529
1323007773079,186.971
1323007833079,187.572
1323007893079,187.099
1323007953079,187.398
1323008013079,187.189
1323008073079,187.158
1323008133079,186.989
1323008193079,187.315
1323008253079,186.901
1323008313079,186.977
1323008373079,187.264
1323008433079,187.229
1323008493079,187.157
1323008553079,187.310
1323008613079,186.994
1323008673079,187.232
1323008733079,187.121
1323008793079,186.974
1323008853079,187.604
1323008913079,186.955
1323008973079,187.417
1323009033079,187.400
1323009093079,187.325
1323009153079,187.052
1323009213079,187.222
1323009273079,187.321
1323009333079,186.965
1323009393079,187.033
1323009453079,186.886
1323009513079,187.296
1323009573079,187.177
1323009633079,187.193
1323009693079,187.406
1323009753079,187.010
1323009813079,187.073
1323009873079,187.447
1323009933079,187.437
1323009993079,187.408
1323010053079,187.862
1323010113079,187.595
1323010173079,187.215
1323010233079,187.454
1323010293079,187.882
1323010353079,187.606
1323010413079,187.463
1323010473079,187.617
1323010533079,187.515
1323010593079,187.495
1323010653079,187.531
1323010713079,187.517
1323010773079,187.779
1323010833092,187.642
1323010893092,187.418
1323010953092,187.429
1323011013092,187.479
1323011073092,187.905
1323011133092,187.718
1323011193092,187.274
1323011253092,187.723
1323011313092,187.869
1323011373092,187.483
1323011433092,187.312
1323011493092,187.444
1323011553092,187.094
1323011613092,187.292
1323011673092,187.350
1323011733092,187.307
1323011793092,187.431
1323011853092,187.151
1323011913092,187.223
1323011973092,187.495
1323012033092,187.533
1323012093092,187.715
1323012153092,187.526
1323012213092,187.309
1323012273092,187.676
1323012333092,187.588
1323012393092,187.453
1323012453092,187.518
1323012513092,187.403
1323012573092,187.143
1323012633092,187.286
1323012693092,187.268
1323012753092,187.234
1323012813092,187.316
1323012873092,187.407
1323012933092,187.746
1323012993092,187.488
1323013053092,187.449
1323013113092,187.648
1323013173092,187.560
1323013233092,187.329
1323013293092,187.876
1323013353092,187.454
1323013413092,187.516
1323013473092,187.375
1323013533092,187.695
1323013593092,187.438
1323013653092,187.562
1323013713092,187.885
1323013773092,187.815
1323013833092,187.588
1323013893092,187.606
1323013953092,187.714
1323014013092,187.691
1323014073092,187.841
1323014133092,187.907
1323014193092,188.361
1323014253092,188.000
1323014313092,187.921
1323014373092,188.141
1323014433104,187.759
1323014493104,187.755
1323014553104,188.152
1323014613104,188.114
1323014673104,187.956
1323014733104,187.774
1323014793104,188.173
1323014853104,188.097
1323014913104,188.695
1323014973104,188.501
1323015033104,187.507
1323015093104,188.371
1323015153104,188.173
1323015213104,188.990
1323015273104,188.124
1323015333104,188.751
1323015393104,188.728
1323015453104,188.510
1323015513104,188.520
1323015573104,188.766
1323015633104,188.601
1323015693104,188.926
1323015753104,188.858
1323015813104,188.771
1323015873104,188.958
1323015933104,189.200
1323015993104,189.298
1323016053104,189.547
1323016113104,189.159
1323016173104,189.212
1323016233104,189.179
1323016293104,189.437
1323016353104,189.506
1323016413104,189.462
1323016473104,188.895
1323016533104,188.939
1323016593104,189.038
1323016653104,188.838
1323016713104,188.891
1323016773104,188.690
1323016833104,188.930
1323016893104,189.220
1323016953104,189.277
1323017013104,188.609
1323017073104,188.974
1323017133104,188.721
1323017193104,188.715
1323017253104,188.898
1323017313104,188.831
1323017373104,189.177
1323017433104,189.161
1323017493104,189.298
1323017553104,189.103
1323017613104,189.045
1323017673104,189.417
1323017733104,189.403
1323017793104,189.407
1323017853104,189.634
1323017913104,189.561
1323017973104,189.443
1323018033116,189.618
1323018093116,189.924
1323018153116,190.299
1323018213116,190.132
1323018273116,190.316
1323018333116,189.972
1323018393116,190.417
1323018453116,190.475
1323018513116,190.213
1323018573116,190.333
1323018633116,190.217
1323018693116,189.868
1323018753116,190.079
1323018813116,189.532
1323018873116,189.221
1323018933116,189.413
1323018993116,189.786
1323019053116,189.679
1323019113116,189.352
1323019173116,189.662
1323019233116,189.612
1323019293116,189.778
1323019353116,189.317
1323019413116,189.479
1323019473116,189.486
1323019533116,189.353
1323019593116,189.251
1323019653116,189.170
1323019713116,189.500
1323019773116,189.561
1323019833116,189.163
1323019893116,189.299
1323019953116,189.276
1323020013116,189.210
1323020073116,188.902
1323020133116,189.041
1323020193116,189.230
1323020253116,189.057
1323020313116,189.035
1323020373116,189.096
1323020433116,188.744
1323020493116,188.994
1323020553116,189.004
1323020613116,188.918
1323020673116,188.548
1323020733116,188.966
1323020793116,188.779
1323020853116,189.026
1323020913116,189.213
1323020973116,189.204
1323021033116,189.185
1323021093116,189.180
1323021153116,189.352
1323021213116,188.990
1323021273116,189.120
1323021333116,188.760
1323021393116,189.068
1323021453116,188.883
1323021513116,188.692
1323021573116,188.976
1323021633128,188.878
1323021693128,189.131
1323021753128,188.673
1323021813128,189.011
1323021873128,188.697
1323021933128,188.921
1323021993128,188.893
1323022053128,188.676
1323022113128,188.726
1323022173128,188.651
1323022233128,188.423
1323022293128,188.602
1323022353128,188.240
1323022413128,188.117
1323022473128,188.418
1323022533128,188.358
1323022593128,188.077
1323022653128,188.399
1323022713128,187.899
1323022773128,187.839
1323022833128,188.127
1323022893128,188.058
1323022953128,188.206
1323023013128,187.981
1323023073128,188.222
1323023133128,187.822
1323023193128,187.510
1323023253128,187.678